Windom, MN

10:28 AM CST on December 14, 2017 (GMT -0600)
Windom Municipal

Weather History for KMWM - May, 2014

Change the Weather History Date:

Tuesday, May 13, 2014

  Actual Average Record
Temperature  
Mean Temperature 48 °F -  
Max Temperature 55 °F 69 °F 91 °F (2007)
Min Temperature 41 °F 42 °F 23 °F (1997)
Degree Days  
Heating Degree Days 17    
Moisture  
Dew Point 37 °F    
Average Humidity 69    
Maximum Humidity 93    
Minimum Humidity 44    
Precipitation  
Precipitation 0.00 in - - ()
Sea Level Pressure  
Sea Level Pressure 30.11 in    
Wind  
Wind Speed 19 mph (NW)    
Max Wind Speed 25 mph    
Max Gust Speed 37 mph    
Visibility 10 miles    
Events      
Averages and records for this station are not official NWS values.
T = Trace of Precipitation, MM = Missing Value Source: NWS Daily Summary

Daily Weather History Graph

Daily Weather History Graph

Search for Another Location

Airport or City:

Trip Planner

Search our weather history database for the weather conditions in past years. The results will help you decide how hot, cold, wet, or windy it might be!

Date:

Astronomy

May. 13, 2014 Rise Set
Actual Time 5:56 AM CDT 8:37 PM CDT
Civil Twilight 5:23 AM CDT 9:10 PM CDT
Nautical Twilight 4:42 AM CDT 9:52 PM CDT
Astronomical Twilight 3:54 AM CDT 10:40 PM CDT
Moon 7:37 PM CDT (5/13) 5:17 AM CDT (5/13)
Length of Visible Light 15h 46m
Length of Day
14h 40m
Waxing Gibbous, 99% of the Moon is Illuminated
May 13
Waxing Gibbous
May 14
Full
May 21
Last Quarter
May 28
New
Jun 5
First Quarter

Hourly Weather History & Observations

Time (CDT) Temp. Windchill Dew Point Humidity Pressure Visibility Wind Dir Wind Speed Gust Speed Precip Events Conditions
12:12 AM 44.6 °F 36.6 °F 42.8 °F 93% 29.94 in 10.0 mi WNW 19.6 mph 33.4 mph N/A   Overcast
12:32 AM 44.6 °F 35.9 °F 42.8 °F 93% 29.94 in 10.0 mi NW 23.0 mph 29.9 mph N/A   Overcast
12:53 AM 44.6 °F 35.5 °F 41.0 °F 87% 29.94 in 10.0 mi NW 25.3 mph 29.9 mph N/A   Overcast
1:12 AM 44.6 °F 36.4 °F 41.0 °F 87% 29.95 in 10.0 mi NW 20.7 mph 28.8 mph N/A   Overcast
1:32 AM 44.6 °F 35.7 °F 39.2 °F 81% 29.95 in 10.0 mi NW 24.2 mph 31.1 mph N/A   Overcast
1:53 AM 44.6 °F 36.9 °F 39.2 °F 81% 29.96 in 10.0 mi WNW 18.4 mph 27.6 mph N/A   Overcast
2:12 AM 44.6 °F 36.1 °F 39.2 °F 81% 29.97 in 10.0 mi NW 21.9 mph 27.6 mph N/A   Overcast
2:32 AM 42.8 °F 34.3 °F 39.2 °F 87% 29.98 in 10.0 mi WNW 19.6 mph 29.9 mph N/A   Overcast
2:53 AM 42.8 °F 34.5 °F 39.2 °F 87% 29.98 in 10.0 mi WNW 18.4 mph 28.8 mph N/A   Overcast
3:32 AM 44.6 °F 35.9 °F 39.2 °F 81% 29.99 in 10.0 mi WNW 23.0 mph 27.6 mph N/A   Overcast
4:12 AM 42.8 °F 34.8 °F 39.2 °F 87% 30.00 in 10.0 mi WNW 17.3 mph 29.9 mph N/A   Overcast
4:32 AM 42.8 °F 34.3 °F 39.2 °F 87% 30.00 in 10.0 mi NW 19.6 mph 28.8 mph N/A   Overcast
4:53 AM 42.8 °F 33.5 °F 39.2 °F 87% 30.00 in 10.0 mi NW 23.0 mph 36.8 mph N/A   Overcast
5:12 AM 42.8 °F 33.8 °F 37.4 °F 81% 29.99 in 10.0 mi NW 21.9 mph 31.1 mph N/A   Overcast
5:32 AM 42.8 °F 34.3 °F 39.2 °F 87% 30.00 in 10.0 mi WNW 19.6 mph 26.5 mph N/A   Overcast
5:53 AM 42.8 °F 34.3 °F 37.4 °F 81% 30.01 in 10.0 mi NW 19.6 mph 27.6 mph N/A   Overcast
6:12 AM 42.8 °F 33.8 °F 37.4 °F 81% 30.02 in 10.0 mi NW 21.9 mph 26.5 mph N/A   Overcast
6:32 AM 42.8 °F 35.4 °F 37.4 °F 81% 30.04 in 10.0 mi NW 15.0 mph 26.5 mph N/A   Overcast
6:53 AM 42.8 °F 33.5 °F 37.4 °F 81% 30.05 in 10.0 mi NW 23.0 mph 28.8 mph N/A   Overcast
7:12 AM 42.8 °F 33.5 °F 37.4 °F 81% 30.06 in 10.0 mi NW 23.0 mph 26.5 mph N/A   Overcast
8:12 AM 42.8 °F 34.3 °F 37.4 °F 81% 30.07 in 10.0 mi NW 19.6 mph 23.0 mph N/A   Overcast
8:32 AM 42.8 °F 34.5 °F 37.4 °F 81% 30.08 in 10.0 mi WNW 18.4 mph 25.3 mph N/A   Overcast
8:53 AM 44.6 °F 36.9 °F 37.4 °F 76% 30.08 in 10.0 mi NW 18.4 mph 26.5 mph N/A   Mostly Cloudy
9:12 AM 44.6 °F 36.1 °F 37.4 °F 76% 30.09 in 10.0 mi NW 21.9 mph 25.3 mph N/A   Scattered Clouds
11:12 AM 48.2 °F - 37.4 °F 66% 30.12 in 10.0 mi NW 24.2 mph 34.5 mph N/A   Clear
11:32 AM 48.2 °F - 37.4 °F 66% 30.13 in 10.0 mi WNW 19.6 mph 29.9 mph N/A   Scattered Clouds
11:53 AM 51.8 °F - 37.4 °F 58% 30.14 in 10.0 mi NW 25.3 mph 31.1 mph N/A   Scattered Clouds
12:32 PM 50.0 °F - 37.4 °F 62% 30.15 in 10.0 mi WNW 20.7 mph 29.9 mph N/A   Mostly Cloudy
12:53 PM 51.8 °F - 37.4 °F 58% 30.16 in 10.0 mi NNW 19.6 mph 27.6 mph N/A   Mostly Cloudy
1:12 PM 51.8 °F - 37.4 °F 58% 30.16 in 10.0 mi NW 17.3 mph 27.6 mph N/A   Mostly Cloudy
1:32 PM 53.6 °F - 37.4 °F 54% 30.16 in 10.0 mi NW 23.0 mph 29.9 mph N/A   Mostly Cloudy
1:53 PM 53.6 °F - 37.4 °F 54% 30.16 in 10.0 mi NW 23.0 mph 29.9 mph N/A   Scattered Clouds
2:12 PM 55.4 °F - 33.8 °F 44% 30.17 in 10.0 mi NW 23.0 mph 29.9 mph N/A   Scattered Clouds
2:32 PM 53.6 °F - 35.6 °F 51% 30.17 in 10.0 mi NW 19.6 mph 25.3 mph N/A   Mostly Cloudy
2:52 PM 53.6 °F - 37.4 °F 54% 30.17 in 10.0 mi WNW 19.6 mph 26.5 mph N/A   Mostly Cloudy
3:12 PM 51.8 °F - 35.6 °F 54% 30.17 in 10.0 mi WNW 19.6 mph 25.3 mph N/A   Mostly Cloudy
3:33 PM 53.6 °F - 35.6 °F 51% 30.17 in 10.0 mi NW 17.3 mph 23.0 mph N/A   Mostly Cloudy
3:52 PM 55.4 °F - 35.6 °F 47% 30.16 in 10.0 mi NW 20.7 mph 24.2 mph N/A   Mostly Cloudy
4:12 PM 55.4 °F - 35.6 °F 47% 30.16 in 10.0 mi WNW 18.4 mph 24.2 mph N/A   Scattered Clouds
4:33 PM 55.4 °F - 35.6 °F 47% 30.16 in 10.0 mi NW 16.1 mph 26.5 mph N/A   Scattered Clouds
4:52 PM 53.6 °F - 35.6 °F 51% 30.16 in 10.0 mi NW 20.7 mph 25.3 mph N/A   Scattered Clouds
5:12 PM 55.4 °F - 35.6 °F 47% 30.16 in 10.0 mi NW 20.7 mph 27.6 mph N/A   Scattered Clouds
5:33 PM 53.6 °F - 35.6 °F 51% 30.17 in 10.0 mi NW 17.3 mph 25.3 mph N/A   Scattered Clouds
5:52 PM 53.6 °F - 35.6 °F 51% 30.17 in 10.0 mi NW 19.6 mph 25.3 mph N/A   Mostly Cloudy
6:13 PM 53.6 °F - 35.6 °F 51% 30.17 in 10.0 mi NW 17.3 mph 26.5 mph N/A   Scattered Clouds
6:32 PM 53.6 °F - 35.6 °F 51% 30.17 in 10.0 mi NW 20.7 mph 24.2 mph N/A   Mostly Cloudy
6:53 PM 53.6 °F - 35.6 °F 51% 30.18 in 10.0 mi NW 16.1 mph 23.0 mph N/A   Scattered Clouds
7:13 PM 51.8 °F - 35.6 °F 54% 30.18 in 10.0 mi NNW 18.4 mph - N/A   Mostly Cloudy
7:32 PM 51.8 °F - 33.8 °F 50% 30.19 in 10.0 mi NW 18.4 mph - N/A   Scattered Clouds
7:52 PM 51.8 °F - 35.6 °F 54% 30.20 in 10.0 mi NW 15.0 mph - N/A   Clear
8:32 PM 48.2 °F - 35.6 °F 62% 30.21 in 10.0 mi NW 11.5 mph - N/A   Clear
8:52 PM 46.4 °F 41.9 °F 35.6 °F 66% 30.21 in 10.0 mi NW 9.2 mph - N/A   Clear
9:13 PM 44.6 °F 40.7 °F 35.6 °F 71% 30.22 in 10.0 mi NW 6.9 mph - N/A   Clear
9:32 PM 44.6 °F 41.4 °F 35.6 °F 71% 30.23 in 10.0 mi NW 5.8 mph - N/A   Clear
9:52 PM 44.6 °F 42.2 °F 35.6 °F 71% 30.23 in 10.0 mi NW 4.6 mph - N/A   Clear
10:13 PM 42.8 °F - 35.6 °F 76% 30.24 in 10.0 mi Calm Calm - N/A   Clear
10:32 PM 41.0 °F - 35.6 °F 81% 30.24 in 10.0 mi Calm Calm - N/A   Clear
10:53 PM 42.8 °F - 35.6 °F 76% 30.24 in 10.0 mi Calm Calm - N/A   Clear
11:13 PM 41.0 °F 39.0 °F 35.6 °F 81% 30.24 in 10.0 mi SW 3.5 mph - N/A   Clear
11:32 PM 41.0 °F - 35.6 °F 81% 30.24 in 10.0 mi Calm Calm - N/A   Clear
11:52 PM 41.0 °F - 35.6 °F 81% 30.24 in 10.0 mi Calm Calm - N/A   Clear